Time,TemperatureF,DewpointF,PressureIn,WindDirection,WindDirectionDegrees,WindSpeedMPH,WindSpeedGustMPH,Humidity,HourlyPrecipIn,Conditions,Clouds,dailyrainin,SoftwareType,DateUTC
2013-05-29 00:01:00,49.0,35.0,-100.00,SSW,206,3.0,7.0,59,-99.99,,,-99.99,,2013-05-29 07:01:00,
2013-05-29 00:11:00,49.0,35.0,-100.00,SSW,206,3.0,7.0,59,-99.99,,,-99.99,,2013-05-29 07:11:00,
2013-05-29 00:21:00,49.0,35.0,-100.00,SW,226,3.0,7.0,58,-99.99,,,-99.99,,2013-05-29 07:21:00,
2013-05-29 00:34:00,49.0,35.0,-100.00,SW,226,3.0,7.0,58,-99.99,,,-99.99,,2013-05-29 07:34:00,
2013-05-29 00:42:00,49.0,35.0,-100.00,SW,226,3.0,7.0,58,-99.99,,,-99.99,,2013-05-29 07:42:00,
2013-05-29 01:02:00,46.0,35.0,-100.00,WNW,285,2.0,5.0,65,-99.99,,,-99.99,,2013-05-29 08:02:00,
2013-05-29 01:11:00,46.0,35.0,-100.00,WNW,285,2.0,5.0,65,-99.99,,,-99.99,,2013-05-29 08:11:00,
2013-05-29 01:21:00,45.0,35.0,-100.00,NW,305,2.0,6.0,67,-99.99,,,-99.99,,2013-05-29 08:21:00,
2013-05-29 01:32:00,48.0,28.0,-100.00,South,182,2.0,8.0,47,-99.99,,,-99.99,,2013-05-29 08:32:00,
2013-05-29 01:52:00,50.0,23.0,-100.00,South,188,4.0,14.0,34,-99.99,,,-99.99,,2013-05-29 08:52:00,
2013-05-29 02:01:00,50.0,23.0,-100.00,South,188,4.0,14.0,34,-99.99,,,-99.99,,2013-05-29 09:01:00,
2013-05-29 02:21:00,50.0,25.0,-100.00,SSE,152,6.0,15.0,37,-99.99,,,-99.99,,2013-05-29 09:21:00,
2013-05-29 02:42:00,50.0,24.0,-100.00,South,182,4.0,11.0,36,-99.99,,,-99.99,,2013-05-29 09:42:00,
2013-05-29 02:52:00,50.0,24.0,-100.00,South,182,4.0,11.0,36,-99.99,,,-99.99,,2013-05-29 09:52:00,
2013-05-29 03:02:00,50.0,25.0,-100.00,South,172,4.0,14.0,37,-99.99,,,-99.99,,2013-05-29 10:02:00,
2013-05-29 03:22:00,50.0,25.0,-100.00,SSE,162,5.0,15.0,37,-99.99,,,-99.99,,2013-05-29 10:22:00,
2013-05-29 03:32:00,50.0,26.0,-100.00,South,176,6.0,17.0,39,-99.99,,,-99.99,,2013-05-29 10:32:00,
2013-05-29 03:42:00,50.0,26.0,-100.00,South,176,6.0,17.0,39,-99.99,,,-99.99,,2013-05-29 10:42:00,
2013-05-29 03:53:00,50.0,26.0,-100.00,South,176,6.0,17.0,39,-99.99,,,-99.99,,2013-05-29 10:53:00,
2013-05-29 04:02:00,50.0,28.0,-100.00,South,172,8.0,21.0,42,-99.99,,,-99.99,,2013-05-29 11:02:00,
2013-05-29 04:11:00,50.0,28.0,-100.00,South,172,8.0,21.0,42,-99.99,,,-99.99,,2013-05-29 11:11:00,
2013-05-29 04:21:00,50.0,31.0,-100.00,South,179,6.0,17.0,48,-99.99,,,-99.99,,2013-05-29 11:21:00,
2013-05-29 04:32:00,48.0,33.0,-100.00,SSE,168,9.0,20.0,56,-99.99,,,-99.99,,2013-05-29 11:32:00,
2013-05-29 04:42:00,48.0,33.0,-100.00,SSE,168,9.0,20.0,56,-99.99,,,-99.99,,2013-05-29 11:42:00,
2013-05-29 04:52:00,48.0,33.0,-100.00,SSE,168,9.0,20.0,56,-99.99,,,-99.99,,2013-05-29 11:52:00,
2013-05-29 05:01:00,47.0,34.0,-100.00,South,181,6.0,17.0,59,-99.99,,,-99.99,,2013-05-29 12:01:00,
2013-05-29 05:11:00,47.0,34.0,-100.00,South,181,6.0,17.0,59,-99.99,,,-99.99,,2013-05-29 12:11:00,
2013-05-29 05:21:00,46.0,36.0,-100.00,South,175,9.0,22.0,67,-99.99,,,-99.99,,2013-05-29 12:21:00,
2013-05-29 05:32:00,46.0,36.0,-100.00,South,175,9.0,22.0,67,-99.99,,,-99.99,,2013-05-29 12:32:00,
2013-05-29 05:42:00,45.0,36.0,-100.00,South,179,8.0,23.0,72,-99.99,,,-99.99,,2013-05-29 12:42:00,
2013-05-29 05:52:00,44.0,37.0,-100.00,SSE,167,9.0,22.0,78,-99.99,,,-99.99,,2013-05-29 12:52:00,
2013-05-29 06:01:00,44.0,37.0,-100.00,SSE,167,9.0,22.0,78,-99.99,,,-99.99,,2013-05-29 13:01:00,
2013-05-29 06:11:00,44.0,37.0,-100.00,SSE,167,9.0,22.0,78,-99.99,,,-99.99,,2013-05-29 13:11:00,
2013-05-29 06:21:00,43.0,39.0,-100.00,South,175,7.0,21.0,84,-99.99,,,-99.99,,2013-05-29 13:21:00,
2013-05-29 06:31:00,43.0,38.0,-100.00,SSE,161,8.0,20.0,81,-99.99,,,-99.99,,2013-05-29 13:31:00,
2013-05-29 06:42:00,43.0,38.0,-100.00,SSE,161,8.0,20.0,81,-99.99,,,-99.99,,2013-05-29 13:42:00,
2013-05-29 06:53:00,43.0,38.0,-100.00,SSE,161,8.0,20.0,81,-99.99,,,-99.99,,2013-05-29 13:53:00,
2013-05-29 07:01:00,43.0,36.0,-100.00,SSE,157,9.0,22.0,77,-99.99,,,-99.99,,2013-05-29 14:01:00,
2013-05-29 07:11:00,43.0,36.0,-100.00,SSE,157,9.0,22.0,77,-99.99,,,-99.99,,2013-05-29 14:11:00,
2013-05-29 07:21:00,44.0,37.0,-100.00,South,169,8.0,22.0,74,-99.99,,,-99.99,,2013-05-29 14:21:00,
2013-05-29 07:32:00,44.0,37.0,-100.00,South,169,8.0,22.0,74,-99.99,,,-99.99,,2013-05-29 14:32:00,
2013-05-29 07:41:00,46.0,38.0,-100.00,South,169,6.0,17.0,73,-99.99,,,-99.99,,2013-05-29 14:41:00,
2013-05-29 07:52:00,48.0,39.0,-100.00,South,169,7.0,18.0,69,-99.99,,,-99.99,,2013-05-29 14:52:00,
2013-05-29 08:01:00,48.0,39.0,-100.00,South,169,7.0,18.0,69,-99.99,,,-99.99,,2013-05-29 15:01:00,
2013-05-29 08:11:00,48.0,39.0,-100.00,South,169,7.0,18.0,69,-99.99,,,-99.99,,2013-05-29 15:11:00,
2013-05-29 08:21:00,49.0,40.0,-100.00,South,174,7.0,16.0,70,-99.99,,,-99.99,,2013-05-29 15:21:00,
2013-05-29 08:32:00,49.0,40.0,-100.00,South,174,7.0,16.0,70,-99.99,,,-99.99,,2013-05-29 15:32:00,
2013-05-29 08:42:00,51.0,39.0,-100.00,South,188,8.0,19.0,63,-99.99,,,-99.99,,2013-05-29 15:42:00,
2013-05-29 08:53:00,52.0,39.0,-100.00,SSW,193,7.0,16.0,60,-99.99,,,-99.99,,2013-05-29 15:53:00,
2013-05-29 09:03:00,52.0,39.0,-100.00,SSW,193,7.0,16.0,60,-99.99,,,-99.99,,2013-05-29 16:03:00,
2013-05-29 09:12:00,52.0,39.0,-100.00,SSW,193,7.0,16.0,60,-99.99,,,-99.99,,2013-05-29 16:12:00,
2013-05-29 09:22:00,52.0,34.0,-100.00,SSW,213,11.0,21.0,51,-99.99,,,-99.99,,2013-05-29 16:22:00,
2013-05-29 09:32:00,52.0,34.0,-100.00,SSW,213,11.0,21.0,51,-99.99,,,-99.99,,2013-05-29 16:32:00,
2013-05-29 09:42:00,52.0,35.0,-100.00,SW,229,8.0,17.0,52,-99.99,,,-99.99,,2013-05-29 16:42:00,
2013-05-29 09:52:00,52.0,35.0,-100.00,SW,229,8.0,17.0,52,-99.99,,,-99.99,,2013-05-29 16:52:00,
2013-05-29 10:02:00,51.0,34.0,-100.00,SW,236,10.0,19.0,52,-99.99,,,-99.99,,2013-05-29 17:02:00,
2013-05-29 10:12:00,51.0,34.0,-100.00,SW,236,10.0,19.0,52,-99.99,,,-99.99,,2013-05-29 17:12:00,
2013-05-29 10:22:00,51.0,31.0,-100.00,SW,216,10.0,18.0,46,-99.99,,,-99.99,,2013-05-29 17:22:00,
2013-05-29 10:32:00,53.0,33.0,-100.00,SW,227,9.0,19.0,46,-99.99,,,-99.99,,2013-05-29 17:32:00,
2013-05-29 10:42:00,53.0,33.0,-100.00,SW,227,9.0,19.0,46,-99.99,,,-99.99,,2013-05-29 17:42:00,
2013-05-29 10:52:00,53.0,33.0,-100.00,SW,227,9.0,19.0,46,-99.99,,,-99.99,,2013-05-29 17:52:00,
2013-05-29 11:01:00,53.0,32.0,-100.00,SW,217,9.0,19.0,45,-99.99,,,-99.99,,2013-05-29 18:01:00,
2013-05-29 11:13:00,53.0,32.0,-100.00,SW,217,9.0,19.0,45,-99.99,,,-99.99,,2013-05-29 18:13:00,
2013-05-29 11:22:00,52.0,29.0,-100.00,SW,234,8.0,15.0,40,-99.99,,,-99.99,,2013-05-29 18:22:00,
2013-05-29 11:32:00,52.0,29.0,-100.00,SW,234,8.0,15.0,40,-99.99,,,-99.99,,2013-05-29 18:32:00,
2013-05-29 11:42:00,53.0,29.0,-100.00,SW,223,9.0,16.0,39,-99.99,,,-99.99,,2013-05-29 18:42:00,
2013-05-29 11:52:00,53.0,29.0,-100.00,SW,223,9.0,16.0,39,-99.99,,,-99.99,,2013-05-29 18:52:00,
2013-05-29 12:01:00,53.0,29.0,-100.00,SW,223,9.0,16.0,39,-99.99,,,-99.99,,2013-05-29 19:01:00,
2013-05-29 12:11:00,53.0,30.0,-100.00,WSW,244,11.0,17.0,41,-99.99,,,-99.99,,2013-05-29 19:11:00,
2013-05-29 12:21:00,54.0,32.0,-100.00,WSW,246,10.0,16.0,43,-99.99,,,-99.99,,2013-05-29 19:21:00,
2013-05-29 12:32:00,54.0,32.0,-100.00,WSW,246,10.0,16.0,43,-99.99,,,-99.99,,2013-05-29 19:32:00,
2013-05-29 12:44:00,54.0,31.0,-100.00,WSW,254,10.0,16.0,42,-99.99,,,-99.99,,2013-05-29 19:44:00,
2013-05-29 12:53:00,54.0,31.0,-100.00,WSW,254,10.0,16.0,42,-99.99,,,-99.99,,2013-05-29 19:53:00,
2013-05-29 13:02:00,54.0,33.0,-100.00,WSW,258,10.0,16.0,45,-99.99,,,-99.99,,2013-05-29 20:02:00,
2013-05-29 13:11:00,54.0,33.0,-100.00,WSW,258,10.0,16.0,45,-99.99,,,-99.99,,2013-05-29 20:11:00,
2013-05-29 13:22:00,55.0,33.0,-100.00,WSW,253,9.0,17.0,43,-99.99,,,-99.99,,2013-05-29 20:22:00,
2013-05-29 13:32:00,55.0,32.0,-100.00,WSW,251,9.0,15.0,42,-99.99,,,-99.99,,2013-05-29 20:32:00,
2013-05-29 13:42:00,55.0,32.0,-100.00,WSW,251,9.0,15.0,42,-99.99,,,-99.99,,2013-05-29 20:42:00,
2013-05-29 13:52:00,55.0,32.0,-100.00,WSW,251,9.0,15.0,42,-99.99,,,-99.99,,2013-05-29 20:52:00,
2013-05-29 14:02:00,56.0,31.0,-100.00,WSW,251,9.0,15.0,39,-99.99,,,-99.99,,2013-05-29 21:02:00,
2013-05-29 14:12:00,56.0,31.0,-100.00,WSW,251,9.0,15.0,39,-99.99,,,-99.99,,2013-05-29 21:12:00,
2013-05-29 14:22:00,56.0,30.0,-100.00,WSW,241,10.0,17.0,36,-99.99,,,-99.99,,2013-05-29 21:22:00,
2013-05-29 14:33:00,56.0,30.0,-100.00,WSW,241,10.0,17.0,36,-99.99,,,-99.99,,2013-05-29 21:33:00,
2013-05-29 14:43:00,57.0,29.0,-100.00,WSW,243,9.0,15.0,33,-99.99,,,-99.99,,2013-05-29 21:43:00,
2013-05-29 14:53:00,57.0,29.0,-100.00,WSW,243,9.0,15.0,33,-99.99,,,-99.99,,2013-05-29 21:53:00,
2013-05-29 15:03:00,57.0,29.0,-100.00,WSW,243,10.0,17.0,34,-99.99,,,-99.99,,2013-05-29 22:03:00,
2013-05-29 15:12:00,57.0,29.0,-100.00,WSW,243,10.0,17.0,34,-99.99,,,-99.99,,2013-05-29 22:12:00,
2013-05-29 15:23:00,57.0,29.0,-100.00,WSW,243,10.0,17.0,34,-99.99,,,-99.99,,2013-05-29 22:23:00,
2013-05-29 15:33:00,59.0,32.0,-100.00,WSW,251,11.0,16.0,36,-99.99,,,-99.99,,2013-05-29 22:33:00,
2013-05-29 15:42:00,59.0,32.0,-100.00,WSW,251,11.0,16.0,36,-99.99,,,-99.99,,2013-05-29 22:42:00,
2013-05-29 15:53:00,59.0,31.0,-100.00,WSW,244,10.0,15.0,34,-99.99,,,-99.99,,2013-05-29 22:53:00,
2013-05-29 16:02:00,59.0,31.0,-100.00,WSW,244,10.0,15.0,34,-99.99,,,-99.99,,2013-05-29 23:02:00,
2013-05-29 16:12:00,59.0,31.0,-100.00,WSW,244,10.0,15.0,34,-99.99,,,-99.99,,2013-05-29 23:12:00,
2013-05-29 16:21:00,58.0,33.0,-100.00,WSW,240,10.0,17.0,39,-99.99,,,-99.99,,2013-05-29 23:21:00,
2013-05-29 16:33:00,58.0,32.0,-100.00,WSW,246,11.0,17.0,37,-99.99,,,-99.99,,2013-05-29 23:33:00,
2013-05-29 16:42:00,58.0,32.0,-100.00,WSW,246,11.0,17.0,37,-99.99,,,-99.99,,2013-05-29 23:42:00,
2013-05-29 16:53:00,58.0,32.0,-100.00,WSW,246,11.0,17.0,37,-99.99,,,-99.99,,2013-05-29 23:53:00,
2013-05-29 17:01:00,58.0,33.0,-100.00,WSW,246,12.0,21.0,39,-99.99,,,-99.99,,2013-05-30 00:01:00,
2013-05-29 17:11:00,58.0,33.0,-100.00,WSW,246,12.0,21.0,39,-99.99,,,-99.99,,2013-05-30 00:11:00,
2013-05-29 17:21:00,58.0,34.0,-100.00,WSW,246,12.0,19.0,41,-99.99,,,-99.99,,2013-05-30 00:21:00,
2013-05-29 17:31:00,58.0,34.0,-100.00,WSW,246,12.0,19.0,41,-99.99,,,-99.99,,2013-05-30 00:31:00,
2013-05-29 17:41:00,58.0,34.0,-100.00,WSW,246,12.0,19.0,41,-99.99,,,-99.99,,2013-05-30 00:41:00,
2013-05-29 18:32:00,58.0,34.0,-100.00,WSW,250,9.0,20.0,40,-99.99,,,-99.99,,2013-05-30 01:32:00,
2013-05-29 18:42:00,58.0,34.0,-100.00,WSW,250,9.0,20.0,40,-99.99,,,-99.99,,2013-05-30 01:42:00,
2013-05-29 18:52:00,56.0,35.0,-100.00,WSW,256,10.0,16.0,45,-99.99,,,-99.99,,2013-05-30 01:52:00,
2013-05-29 19:01:00,56.0,35.0,-100.00,WSW,256,10.0,16.0,45,-99.99,,,-99.99,,2013-05-30 02:01:00,
2013-05-29 19:11:00,56.0,35.0,-100.00,WSW,256,10.0,16.0,45,-99.99,,,-99.99,,2013-05-30 02:11:00,
2013-05-29 19:21:00,56.0,35.0,-100.00,WSW,256,10.0,16.0,45,-99.99,,,-99.99,,2013-05-30 02:21:00,
2013-05-29 19:32:00,56.0,36.0,-100.00,WSW,258,11.0,18.0,48,-99.99,,,-99.99,,2013-05-30 02:32:00,
2013-05-29 19:42:00,56.0,36.0,-100.00,WSW,258,11.0,18.0,48,-99.99,,,-99.99,,2013-05-30 02:42:00,
2013-05-29 20:01:00,55.0,37.0,-100.00,WSW,258,8.0,13.0,50,-99.99,,,-99.99,,2013-05-30 03:01:00,
2013-05-29 20:11:00,55.0,40.0,-100.00,WSW,251,8.0,15.0,58,-99.99,,,-99.99,,2013-05-30 03:11:00,
2013-05-29 20:21:00,55.0,40.0,-100.00,WSW,251,8.0,15.0,58,-99.99,,,-99.99,,2013-05-30 03:21:00,
2013-05-29 21:02:00,50.0,41.0,-100.00,West,265,3.0,7.0,70,-99.99,,,-99.99,,2013-05-30 04:02:00,
2013-05-29 21:12:00,50.0,41.0,-100.00,West,265,3.0,7.0,70,-99.99,,,-99.99,,2013-05-30 04:12:00,
2013-05-29 21:23:00,49.0,41.0,-100.00,WNW,282,4.0,7.0,74,-99.99,,,-99.99,,2013-05-30 04:23:00,
2013-05-29 21:32:00,50.0,42.0,-100.00,WNW,301,4.0,9.0,74,-99.99,,,-99.99,,2013-05-30 04:32:00,
2013-05-29 21:42:00,50.0,42.0,-100.00,WNW,301,4.0,9.0,74,-99.99,,,-99.99,,2013-05-30 04:42:00,
2013-05-29 21:53:00,50.0,42.0,-100.00,WNW,301,4.0,9.0,74,-99.99,,,-99.99,,2013-05-30 04:53:00,
2013-05-29 22:02:00,49.0,41.0,-100.00,West,280,2.0,6.0,74,-99.99,,,-99.99,,2013-05-30 05:02:00,
2013-05-29 22:12:00,49.0,41.0,-100.00,West,280,2.0,6.0,74,-99.99,,,-99.99,,2013-05-30 05:12:00,
2013-05-29 22:22:00,48.0,41.0,-100.00,ENE,72,2.0,4.0,74,-99.99,,,-99.99,,2013-05-30 05:22:00,
2013-05-29 22:32:00,47.0,40.0,-100.00,NNW,328,1.0,4.0,74,-99.99,,,-99.99,,2013-05-30 05:32:00,
2013-05-29 22:42:00,47.0,40.0,-100.00,NNW,328,1.0,4.0,74,-99.99,,,-99.99,,2013-05-30 05:42:00,
2013-05-29 22:52:00,45.0,39.0,-100.00,NNE,17,2.0,4.0,78,-99.99,,,-99.99,,2013-05-30 05:52:00,
2013-05-29 23:01:00,45.0,39.0,-100.00,NNE,17,2.0,4.0,78,-99.99,,,-99.99,,2013-05-30 06:01:00,
2013-05-29 23:12:00,45.0,39.0,-100.00,NNE,17,2.0,4.0,78,-99.99,,,-99.99,,2013-05-30 06:12:00,
2013-05-29 23:21:00,44.0,38.0,-100.00,NNE,27,1.0,3.0,81,-99.99,,,-99.99,,2013-05-30 06:21:00,
2013-05-29 23:32:00,43.0,38.0,-100.00,NNW,333,1.0,3.0,81,-99.99,,,-99.99,,2013-05-30 06:32:00,
2013-05-29 23:42:00,43.0,38.0,-100.00,NNW,333,1.0,3.0,81,-99.99,,,-99.99,,2013-05-30 06:42:00,
2013-05-29 23:52:00,44.0,37.0,-100.00,North,11,1.0,4.0,78,-99.99,,,-99.99,,2013-05-30 06:52:00,